Weather History for K9L2 - November, 2013

Change the Weather History Date:

Friday, November 29, 2013

  Actual Average (KEDW) Record (KEDW)
Temperature  
Mean Temperature 46 °F -  
Max Temperature 55 °F 58 °F 75 °F (2014)
Min Temperature 36 °F 31 °F 19 °F (2010)
Degree Days  
Heating Degree Days 20    
Moisture  
Dew Point 37 °F    
Average Humidity 73    
Maximum Humidity 86    
Minimum Humidity 44    
Precipitation  
Precipitation 0.00 in - - ()
Sea Level Pressure  
Sea Level Pressure 30.20 in    
Wind  
Wind Speed 1 mph (South)    
Max Wind Speed 5 mph    
Max Gust Speed -    
Visibility 10 miles    
Events      
Averages and records for this station are not official NWS values.
T = Trace of Precipitation, MM = Missing Value Source: NWS Daily Summary

Daily Weather History Graph

Daily Weather History Graph

Search for Another Location

Airport or City:

Trip Planner

Search our weather history database for the weather conditions in past years. The results will help you decide how hot, cold, wet, or windy it might be!

Date:

Astronomy

Nov. 29, 2013 Rise Set
Actual Time 6:39 AM PST 4:40 PM PST
Civil Twilight 6:11 AM PST 5:07 PM PST
Nautical Twilight 5:40 AM PST 5:38 PM PST
Astronomical Twilight 5:10 AM PST 6:09 PM PST
Moon 2:57 AM PST (11/29) 2:21 PM PST (11/29)
Length of Visible Light 10h 55m
Length of Day
10h 00m
Waning Crescent, 13% of the Moon is Illuminated
Nov 29
Waning Crescent
Dec 2
New
Dec 9
First Quarter
Dec 17
Full
Dec 25
Last Quarter

Hourly Weather History & Observations

Time (PST) Temp. Windchill Dew Point Humidity Pressure Visibility Wind Dir Wind Speed Gust Speed Precip Events Conditions
12:55 AM 39.0 °F - 32.0 °F 76% 30.12 in 10.0 mi Calm Calm - N/A   Clear
1:55 AM 37.9 °F - 32.0 °F 79% 30.13 in 10.0 mi Calm Calm - N/A   Clear
2:55 AM - - - N/A% - 10.0 mi Calm Calm - N/A   Unknown
3:55 AM 36.0 °F 32.1 °F 30.9 °F 82% 30.14 in 10.0 mi ENE 4.6 mph - N/A   Clear
4:55 AM 37.0 °F - 32.0 °F 82% 30.16 in 10.0 mi Calm Calm - N/A   Mostly Cloudy
5:55 AM 37.9 °F - 33.1 °F 83% 30.17 in 10.0 mi Calm Calm - N/A   Overcast
7:55 AM 41.0 °F 38.0 °F 35.1 °F 79% 30.21 in 10.0 mi SSW 4.6 mph - N/A   Overcast
8:55 AM 43.0 °F 41.3 °F 35.1 °F 74% 30.23 in 10.0 mi SSW 3.5 mph - N/A   Mostly Cloudy
9:55 AM 46.9 °F - 37.0 °F 68% 30.24 in 10.0 mi Calm Calm - N/A   Overcast
10:55 AM 48.2 °F - 37.4 °F 66% 30.22 in 10.0 mi South 3.5 mph - N/A   Overcast
11:55 AM 48.9 °F - 39.9 °F 71% 30.22 in 10.0 mi South 4.6 mph - N/A   Mostly Cloudy
12:55 PM 51.1 °F - 39.0 °F 63% 30.19 in 10.0 mi Calm Calm - N/A   Mostly Cloudy
1:55 PM 54.0 °F - 37.9 °F 55% 30.18 in 10.0 mi Calm Calm - N/A   Mostly Cloudy
2:55 PM 55.9 °F - 34.0 °F 44% 30.18 in 10.0 mi Calm Calm - N/A   Overcast
3:55 PM - - - N/A% - - North - - N/A   Unknown
4:55 PM 54.0 °F - 37.0 °F 53% 30.19 in 10.0 mi Calm Calm - N/A   Overcast
5:55 PM 51.1 °F - 42.1 °F 71% 30.21 in 10.0 mi Calm Calm - N/A   Overcast
6:55 PM 48.0 °F - 39.9 °F 74% 30.22 in 10.0 mi Calm Calm - N/A   Scattered Clouds
7:55 PM 46.9 °F - 39.9 °F 77% 30.24 in 10.0 mi Calm Calm - N/A   Overcast
8:55 PM 46.9 °F - 42.1 °F 83% 30.25 in 10.0 mi Calm Calm - N/A   Overcast
9:55 PM 46.0 °F - 42.1 °F 86% 30.25 in 10.0 mi Calm Calm - N/A   Overcast
10:55 PM 46.9 °F - 42.1 °F 83% 30.25 in 9.0 mi Calm Calm - N/A   Overcast
11:55 PM 45.0 °F - 41.0 °F 86% 30.25 in 9.0 mi Calm Calm - N/A   Overcast